Theta_e
317 317 318 318 317 319 322 323 325 324 320 320 319 320 319 325 338 338 336 333 332 332 331 332 333 335 333 333 331 332 331 331 331 332 333 333 332 325 319 318 316 316 316 316
317 319 320 319 321 323 322 322 322 322 321 320 321 324 325 327 337 338 336 333 332 331 331 332 333 335 330 332 331 330 330 331 332 333 333 329 323 320 318 317 317 318 317 317
319 320 323 323 323 323 323 323 323 324 322 320 320 326 325 329 335 337 336 334 332 331 331 331 332 333 328 331 333 330 332 334 335 334 329 321 319 319 318 317 317 317 317 315
320 320 323 323 325 322 324 324 325 326 323 324 319 325 324 324 332 337 336 334 333 331 331 330 331 330 329 330 333 333 333 331 331 323 321 319 319 318 318 319 318 318 315 314
324 324 324 324 325 324 325 325 323 323 323 319 320 321 322 323 326 330 334 334 332 331 330 329 330 330 329 333 334 334 331 327 323 321 320 320 319 319 319 318 317 314 313 313
323 322 323 323 323 323 323 323 320 319 317 321 320 324 325 323 325 324 322 327 333 331 329 330 331 331 330 333 332 330 325 323 322 321 321 319 318 317 317 315 313 313 313 312
324 324 324 325 324 321 321 320 322 322 324 323 319 324 321 321 322 321 326 329 332 331 330 329 328 329 330 330 328 324 323 323 321 320 317 315 316 317 315 313 313 313 312 310
325 327 327 326 324 324 322 320 322 326 323 320 322 325 322 321 320 320 324 330 331 329 326 326 326 325 326 329 325 323 320 320 318 315 315 317 316 315 313 313 312 310 309 309
329 329 327 325 324 324 325 324 320 319 322 322 321 324 323 323 322 320 322 328 329 327 325 325 325 322 324 325 322 319 318 315 315 315 318 316 314 313 313 310 308 308 308 308
326 329 328 329 326 326 325 321 324 321 329 329 323 325 324 324 323 322 322 320 319 319 320 321 321 318 318 317 317 315 314 314 315 316 315 314 314 312 310 308 307 307 308 308
324 325 327 327 327 328 327 323 320 319 322 325 326 323 320 321 321 320 318 316 315 315 315 315 316 317 316 315 314 314 314 314 315 315 314 313 312 310 308 308 307 308 308 308
328 323 327 326 325 325 325 324 319 322 322 322 320 322 319 319 319 318 317 316 316 314 312 312 313 315 314 313 313 314 313 314 315 314 313 312 310 309 308 307 308 309 308 308
326 323 325 325 323 324 328 324 319 317 317 322 322 322 322 321 320 318 318 318 315 313 312 311 312 312 313 313 314 313 314 315 314 312 311 310 309 308 308 308 309 309 308 308
327 324 323 325 321 323 326 324 322 321 322 322 322 322 324 322 322 320 318 316 313 312 313 311 311 312 313 313 313 313 314 314 312 311 309 308 308 308 307 309 309 308 308 308
323 329 330 327 328 326 326 326 325 322 320 324 322 323 321 320 319 318 316 315 314 314 312 311 311 311 313 313 313 313 313 313 311 309 308 308 307 307 308 308 308 308 308 308
321 328 327 326 328 328 329 327 326 326 323 324 323 325 322 319 317 318 316 316 315 315 314 313 312 312 312 313 313 313 313 312 309 308 307 307 307 308 309 308 308 308 308 308
325 326 324 327 329 328 323 328 328 325 324 323 325 324 322 321 319 319 316 316 316 315 314 314 313 313 313 313 313 312 312 310 309 307 306 306 307 308 309 308 308 307 307 308
326 326 325 328 327 330 323 326 329 330 330 326 326 324 322 322 321 320 316 317 317 316 315 313 314 314 314 313 312 312 310 309 307 306 306 306 308 308 308 307 307 307 307 307
325 327 330 330 329 328 330 327 327 327 330 329 327 325 323 322 322 322 317 316 316 315 317 317 317 315 314 313 312 312 309 307 306 306 306 306 308 308 307 307 306 306 306 306
326 324 329 329 331 333 328 328 327 324 326 325 328 326 324 322 324 321 321 319 318 319 319 318 316 314 314 312 312 310 308 306 306 305 306 307 308 307 307 306 306 305 306 306
327 326 329 327 329 329 326 328 324 326 325 324 326 326 325 322 321 319 320 319 320 321 320 318 315 315 313 312 311 308 306 306 305 305 306 307 308 307 306 304 304 305 305 307
327 327 327 326 330 332 327 327 326 321 322 325 324 325 324 324 322 320 318 317 320 319 320 318 315 313 312 311 309 307 306 306 305 306 307 308 307 307 304 303 303 305 306 307
329 325 328 326 327 322 323 323 321 320 323 325 322 322 322 321 319 317 317 316 319 319 319 317 314 312 311 310 308 307 306 305 305 306 308 307 307 304 304 304 304 305 306 307
321 323 324 323 322 325 323 325 325 323 323 323 322 321 319 319 317 317 317 316 318 319 318 316 313 311 309 309 308 307 306 305 306 307 308 307 306 304 304 304 304 305 306 306
318 319 325 323 322 324 325 326 325 325 325 322 323 321 320 319 318 318 317 317 319 320 319 316 312 310 310 308 307 307 306 306 307 308 307 307 306 305 305 304 305 305 305 306
316 317 319 322 317 320 321 321 319 318 318 318 318 319 319 320 318 319 317 319 320 321 320 315 312 310 309 309 307 306 306 306 308 308 307 307 306 305 305 304 304 305 306 306
Wind_Speed
4 6 3 7 4 4 1 5 3 2 6 4 4 6 8 5 8 10 9 10 9 11 8 17 13 9 11 12 12 19 16 12 9 7 5 3 4 7 8 15 16 18 20 19
7 3 7 2 5 5 4 5 4 4 6 4 7 8 7 6 3 7 12 9 10 4 8 10 14 10 6 13 16 14 13 9 7 6 6 5 7 9 14 15 15 16 16 18
5 8 6 4 4 6 4 4 1 2 3 3 6 5 6 6 5 2 3 2 5 11 11 6 9 13 8 13 18 13 10 8 6 7 9 8 9 11 13 14 14 14 16 18
3 5 7 6 3 4 3 2 2 4 3 2 3 3 4 4 2 4 5 5 7 9 4 2 8 14 14 12 14 14 12 7 9 10 11 9 10 12 13 13 13 12 16 15
2 5 6 6 2 3 3 2 3 2 1 5 8 5 5 2 1 4 7 8 8 7 6 6 13 19 17 13 16 16 12 12 12 12 11 9 11 13 13 12 11 14 16 16
2 2 2 3 4 4 2 3 7 5 3 4 3 4 3 2 5 3 4 8 8 8 8 8 10 12 18 16 14 13 15 15 14 11 9 11 13 14 11 10 13 13 13 14
5 5 4 3 4 7 9 8 5 6 6 3 6 4 7 4 3 6 7 7 9 7 4 6 8 7 10 11 13 15 15 13 10 9 11 13 14 9 10 12 13 13 15 19
4 5 2 0 4 5 4 5 5 1 1 5 5 2 4 2 1 2 4 5 4 4 5 4 5 8 16 20 19 15 11 10 8 10 13 11 8 8 9 9 10 17 18 20
4 2 3 3 3 5 1 4 3 6 2 2 3 2 3 1 2 2 4 5 5 5 7 8 11 16 18 18 15 11 9 8 9 11 8 8 7 7 6 12 16 17 18 19
6 3 2 4 6 6 3 5 3 4 0 2 4 4 5 6 3 1 5 6 7 7 8 8 12 18 13 10 9 8 6 7 7 6 6 5 6 6 10 14 18 17 18 19
4 4 4 3 2 3 3 2 6 4 4 4 1 6 7 9 10 9 7 6 7 7 6 7 12 10 11 10 8 7 5 5 5 5 7 7 7 10 13 17 18 16 19 20
2 5 2 1 5 4 2 3 4 5 4 2 4 7 3 7 5 6 8 9 5 6 7 5 10 13 12 11 8 5 5 6 4 5 7 7 11 12 16 19 18 17 23 20
4 3 3 7 6 5 3 2 4 4 3 4 4 6 3 3 7 7 9 5 4 5 6 6 9 11 11 9 8 6 6 6 6 5 5 9 10 13 18 19 17 21 20 17
8 3 6 6 5 3 3 5 3 4 3 3 6 6 4 4 7 5 2 3 6 6 7 5 5 11 12 12 10 8 7 7 5 5 10 9 10 13 17 17 19 22 17 15
4 3 2 2 1 2 1 2 5 5 6 5 6 3 7 7 6 5 5 4 6 7 7 7 7 12 16 14 11 9 7 7 4 8 8 11 11 14 16 17 22 19 16 14
3 1 2 2 1 5 3 6 6 3 3 1 5 1 3 3 5 7 9 8 7 7 7 8 8 15 16 17 12 9 7 5 4 6 11 11 13 15 16 21 21 17 16 14
3 5 3 3 3 5 5 3 3 2 2 5 2 5 3 4 4 3 8 6 7 9 10 9 10 17 17 14 10 7 6 4 5 11 11 11 14 15 16 23 19 18 16 14
5 4 2 3 3 0 5 2 4 4 4 4 1 2 1 2 1 3 6 8 9 9 9 9 17 18 13 11 9 5 3 4 9 10 10 13 14 17 18 21 18 17 15 13
2 5 3 4 3 4 2 3 5 3 4 3 2 3 2 2 4 4 7 7 9 8 16 21 19 15 11 10 7 5 3 6 9 9 11 13 15 15 20 18 18 16 15 12
5 5 4 3 4 6 6 3 2 2 4 1 0 1 3 4 0 5 4 4 10 20 23 20 14 10 10 9 7 4 4 8 10 11 13 13 12 18 16 17 16 13 11 7
2 3 4 2 3 6 7 4 2 4 7 1 1 1 1 3 5 5 7 6 11 17 21 14 9 12 10 8 3 3 6 9 9 11 11 13 13 15 13 17 12 11 9 4
7 6 3 3 2 6 5 4 6 6 3 0 1 1 3 0 5 6 7 7 13 13 10 7 12 12 8 6 3 3 7 8 8 10 12 11 14 12 15 14 11 9 7 5
2 6 5 8 5 3 4 5 5 5 3 2 2 2 2 1 3 6 6 8 14 16 13 8 13 12 10 7 3 4 7 7 9 9 11 14 9 13 14 13 10 9 8 8
4 3 2 2 2 4 4 2 3 4 3 2 1 2 1 4 5 6 7 8 15 20 19 10 15 17 12 8 2 3 6 6 8 10 9 10 7 12 15 13 11 10 9 9
4 1 2 1 3 2 4 2 3 3 2 2 2 2 2 3 6 4 6 10 18 21 23 13 20 15 10 5 1 2 4 6 9 9 10 6 6 9 12 14 12 12 11 8
3 6 4 5 5 4 3 1 2 4 4 5 5 4 4 1 4 4 8 16 17 22 19 12 16 15 10 6 3 2 4 6 8 10 7 7 8 5 8 10 12 13 11 10
Wind_Direction
355 45 293 266 156 179 211 113 104 326 335 80 19 7 355 40 103 127 154 171 192 210 255 249 253 219 213 210 205 201 191 198 198 183 200 231 279 307 317 328 328 324 319 321
9 294 264 48 135 115 195 108 3 328 349 69 47 33 15 50 145 184 162 185 202 214 242 245 231 233 248 234 217 210 205 204 211 236 229 266 307 310 312 322 319 308 309 316
170 244 34 108 98 88 25 79 12 221 343 45 98 16 11 16 29 29 57 188 223 211 217 230 223 237 240 236 224 217 198 206 234 233 261 260 296 290 301 305 301 303 311 321
218 302 128 111 123 123 54 257 243 265 87 201 53 211 358 20 351 301 259 240 231 233 237 189 220 239 234 239 210 198 197 240 234 239 252 279 276 287 293 293 294 304 317 313
272 138 113 85 29 142 220 353 32 13 92 92 346 79 263 180 88 258 254 252 248 245 230 219 224 230 226 230 205 208 226 227 228 242 257 272 281 282 284 289 298 307 308 309
8 155 67 112 58 43 29 16 42 48 54 61 267 123 257 226 169 223 253 235 234 231 227 227 234 228 220 216 218 208 209 223 233 252 270 281 279 280 282 291 299 299 294 305
12 337 318 138 85 10 57 46 357 12 12 244 325 55 236 258 184 181 187 214 213 212 197 197 200 206 200 208 199 211 223 237 254 261 273 277 276 270 286 294 293 297 307 316
111 343 336 217 129 149 66 108 135 45 303 280 336 136 259 246 127 180 174 156 132 175 195 197 182 218 216 213 211 215 235 246 241 262 270 266 265 279 291 309 325 320 316 316
131 282 320 15 120 107 132 41 173 105 12 42 290 321 356 104 186 115 128 140 179 216 185 181 189 199 197 201 209 231 214 232 253 266 251 252 265 293 319 326 329 326 321 318
191 119 347 349 49 30 94 154 38 15 87 288 304 284 234 229 208 227 137 161 189 209 192 195 192 192 200 198 184 193 222 249 263 251 255 273 297 307 328 338 335 325 324 327
119 103 276 37 39 196 12 31 55 111 132 172 224 269 216 209 196 194 194 185 189 183 180 178 189 183 168 167 184 207 228 270 268 275 294 292 298 318 332 334 321 322 327 327
35 121 104 189 320 318 177 161 124 119 248 196 158 269 301 254 202 163 200 212 187 179 188 163 152 161 172 187 196 215 273 257 267 291 304 299 314 319 328 328 320 327 327 327
181 30 51 354 354 358 29 60 105 113 80 209 136 266 299 123 155 199 176 200 167 168 141 138 166 177 187 202 215 239 255 228 245 268 301 314 311 321 323 323 328 329 328 329
84 99 148 185 198 193 325 351 61 115 107 225 230 274 234 210 185 191 160 141 160 161 163 186 195 199 205 214 222 236 228 238 247 295 321 321 318 320 326 327 330 328 328 331
87 107 153 158 235 54 281 314 311 199 211 162 274 232 294 216 212 216 205 170 153 166 198 210 209 214 217 223 229 224 242 231 268 315 325 326 322 325 332 339 336 330 329 333
6 147 81 355 30 35 337 332 314 307 107 3 98 59 238 162 154 173 178 171 187 204 221 224 218 221 223 228 230 229 235 224 295 322 328 330 330 333 337 339 338 332 334 338
87 123 87 257 357 13 4 295 345 36 8 150 163 229 190 183 178 173 194 181 201 219 223 224 222 223 226 234 235 241 214 251 322 334 336 342 337 336 338 338 337 336 334 336
125 101 102 197 46 116 245 280 262 115 336 319 105 15 168 161 12 237 211 193 224 235 239 237 233 232 228 227 227 217 227 300 337 340 342 344 341 337 338 338 340 340 338 335
47 125 97 141 181 279 249 219 175 173 254 230 160 127 188 81 43 295 228 234 245 249 246 245 245 236 224 209 221 222 257 329 343 346 347 345 340 339 341 343 342 339 335 335
57 64 120 140 161 197 239 218 147 107 280 319 245 88 167 134 34 263 299 264 264 271 268 261 246 227 208 196 196 228 318 343 348 347 344 343 339 341 349 345 338 333 343 340
25 1 175 160 216 288 242 184 104 100 238 115 33 318 318 188 214 261 320 323 332 313 301 271 227 223 208 181 189 291 344 345 342 343 347 346 348 351 352 343 347 341 346 2
181 164 208 106 138 270 167 81 167 217 228 193 119 78 86 82 320 331 323 323 317 330 325 247 214 204 172 174 226 329 348 342 343 350 355 1 354 5 359 3 357 4 16 66
260 187 185 174 214 253 240 186 182 173 141 160 144 174 145 312 322 314 312 316 321 330 330 249 205 174 180 191 222 15 360 350 344 359 6 4 19 23 18 10 16 26 48 82
320 162 129 100 299 276 249 232 190 174 139 135 99 129 58 337 336 323 342 341 336 337 325 247 199 187 185 193 167 33 1 350 353 359 11 9 37 29 26 30 40 53 64 93
206 84 169 288 284 339 21 118 148 124 111 98 107 94 25 13 355 333 322 322 330 332 327 257 212 189 191 179 162 352 353 348 0 4 5 30 48 37 37 43 50 58 50 79
197 189 157 218 215 162 218 110 114 100 95 87 92 59 25 12 289 313 325 333 330 328 321 234 202 194 182 178 177 357 2 358 7 14 32 44 53 48 47 48 58 54 54 69